,,PA_Meas_PMT16A,,PR_Meas_QMR101_102,,RH_Meas_QMH101,,SR_Meas_QMS101,,TA_Meas_QMH101,,GenWind,,GenWind,
time,status,PA,status,PR,status,RH,status,SR,status,TA,status,DirAvg,status,SpdAvg,
2010-05-17, 00:00:05,VALID,916.248,VALID,0,VALID,94.6752,VALID,0,VALID,21.0291,VALID,152,VALID,1.07422,
2010-05-17, 00:01:05,VALID,916.253,VALID,0,VALID,94.8353,VALID,0,VALID,21.008,VALID,152,VALID,0.967578,
2010-05-17, 00:02:05,VALID,916.233,VALID,0,VALID,94.9115,VALID,0,VALID,21.0291,VALID,152,VALID,0.956641,
2010-05-17, 00:03:05,VALID,916.287,VALID,0,VALID,94.7819,VALID,0,VALID,21.0096,VALID,152,VALID,1.16367,
2010-05-17, 00:04:05,VALID,916.298,VALID,0,VALID,94.8582,VALID,0,VALID,21.008,VALID,152,VALID,1.37383,
2010-05-17, 00:05:05,VALID,916.307,VALID,0,VALID,94.9344,VALID,0,VALID,21.0291,VALID,152,VALID,1.61055,
2010-05-17, 00:06:05,VALID,916.305,VALID,0,VALID,94.8429,VALID,0,VALID,21.047,VALID,152,VALID,1.52344,
2010-05-17, 00:07:05,VALID,916.298,VALID,0,VALID,94.6981,VALID,0,VALID,21.0665,VALID,152,VALID,1.00508,
2010-05-17, 00:08:05,VALID,916.296,VALID,0,VALID,94.5837,VALID,0,VALID,21.0681,VALID,152,VALID,0.394531,
2010-05-17, 00:09:05,VALID,916.293,VALID,0,VALID,94.4999,VALID,0,VALID,21.0486,VALID,152,VALID,0.794922,
2010-05-17, 00:10:05,VALID,916.242,VALID,0,VALID,94.5609,VALID,0,VALID,21.0486,VALID,152,VALID,0.993359,
2010-05-17, 00:11:05,VALID,916.204,VALID,0,VALID,94.4999,VALID,0,VALID,21.0275,VALID,151,VALID,0.917578,
2010-05-17, 00:12:05,VALID,916.165,VALID,0,VALID,94.4617,VALID,0,VALID,21.0096,VALID,151,VALID,0.633594,
2010-05-17, 00:13:05,VALID,916.12,VALID,0,VALID,94.5304,VALID,0,VALID,20.9706,VALID,151,VALID,1.05859,
2010-05-17, 00:14:05,VALID,916.157,VALID,0,VALID,94.7209,VALID,0,VALID,20.9105,VALID,151,VALID,1.22305,
2010-05-17, 00:15:05,VALID,916.103,VALID,0,VALID,94.9496,VALID,0,VALID,20.891,VALID,151,VALID,0.795313,
2010-05-17, 00:16:05,VALID,916.107,VALID,0,VALID,95.2775,VALID,0,VALID,20.8925,VALID,151,VALID,0.953516,
2010-05-17, 00:17:05,VALID,916.123,VALID,0,VALID,95.4604,VALID,0,VALID,20.8535,VALID,151,VALID,0.410547,
2010-05-17, 00:18:05,VALID,916.147,VALID,0,VALID,95.6281,VALID,0,VALID,20.8535,VALID,151,VALID,0.488672,
2010-05-17, 00:19:05,VALID,916.158,VALID,0,VALID,95.6891,VALID,0,VALID,20.834,VALID,151,VALID,0.287109,
2010-05-17, 00:20:05,VALID,916.162,VALID,0,VALID,95.5595,VALID,0,VALID,20.834,VALID,151,VALID,0.305078,
2010-05-17, 00:21:05,VALID,916.161,VALID,0,VALID,95.3003,VALID,0,VALID,20.7365,VALID,151,VALID,0.728906,
2010-05-17, 00:22:05,VALID,916.162,VALID,0,VALID,95.2851,VALID,0,VALID,20.6975,VALID,151,VALID,0.822266,
2010-05-17, 00:23:05,VALID,916.142,VALID,0,VALID,95.5976,VALID,0,VALID,20.6764,VALID,151,VALID,1.01406,
2010-05-17, 00:24:05,VALID,916.159,VALID,0,VALID,95.834,VALID,0,VALID,20.6959,VALID,151,VALID,1.18125,
2010-05-17, 00:25:05,VALID,916.159,VALID,0,VALID,95.9559,VALID,0,VALID,20.7154,VALID,151,VALID,1.43008,
2010-05-17, 00:26:05,VALID,916.131,VALID,0,VALID,96.0245,VALID,0,VALID,20.795,VALID,151,VALID,0.841797,
2010-05-17, 00:27:05,VALID,916.139,VALID,0,VALID,95.9407,VALID,0,VALID,20.8145,VALID,151,VALID,1.04375,
2010-05-17, 00:28:05,VALID,916.148,VALID,0,VALID,95.8263,VALID,0,VALID,20.8324,VALID,151,VALID,0.819141,
2010-05-17, 00:29:05,VALID,916.164,VALID,0,VALID,95.6739,VALID,0,VALID,20.8535,VALID,151,VALID,0.808984,
2010-05-17, 00:30:05,VALID,916.158,VALID,0,VALID,95.5595,VALID,0,VALID,20.8925,VALID,151,VALID,0.818359,
2010-05-17, 00:31:05,VALID,916.163,VALID,0,VALID,95.3156,VALID,0,VALID,20.8714,VALID,151,VALID,0.40625,
2010-05-17, 00:32:05,VALID,916.152,VALID,0,VALID,94.8124,VALID,0,VALID,20.8535,VALID,151,VALID,0.839844,
2010-05-17, 00:33:05,VALID,916.179,VALID,0,VALID,94.6142,VALID,0,VALID,20.834,VALID,151,VALID,1.24297,
2010-05-17, 00:34:05,VALID,916.167,VALID,0,VALID,94.7667,VALID,0,VALID,20.7755,VALID,151,VALID,1.30586,
2010-05-17, 00:35:05,VALID,916.198,VALID,0,VALID,95.0564,VALID,0,VALID,20.7755,VALID,151,VALID,1.19141,
2010-05-17, 00:36:05,VALID,916.152,VALID,0,VALID,95.2317,VALID,0,VALID,20.8145,VALID,137,VALID,1.31367,
2010-05-17, 00:37:05,VALID,916.198,VALID,0,VALID,95.0716,VALID,0,VALID,20.8714,VALID,88,VALID,1.20273,
2010-05-17, 00:38:05,VALID,916.201,VALID,0,VALID,94.7819,VALID,0,VALID,20.891,VALID,88,VALID,0.935156,
2010-05-17, 00:39:05,VALID,916.236,VALID,0,VALID,94.5151,VALID,0,VALID,20.9316,VALID,88,VALID,0.981641,
2010-05-17, 00:40:05,VALID,916.233,VALID,0,VALID,94.3931,VALID,0,VALID,20.93,VALID,88,VALID,1.03711,
2010-05-17, 00:41:05,VALID,916.234,VALID,0,VALID,94.3321,VALID,0,VALID,20.9511,VALID,88,VALID,0.957812,
2010-05-17, 00:42:05,VALID,916.22,VALID,0,VALID,94.3321,VALID,0,VALID,20.9495,VALID,88,VALID,0.963281,
2010-05-17, 00:43:05,VALID,916.2,VALID,0,VALID,94.2178,VALID,0,VALID,20.93,VALID,88,VALID,0.951953,
2010-05-17, 00:44:05,VALID,916.189,VALID,0,VALID,94.1263,VALID,0,VALID,20.912,VALID,88,VALID,0.997656,
2010-05-17, 00:45:05,VALID,916.216,VALID,0,VALID,94.3321,VALID,0,VALID,20.873,VALID,88,VALID,0.991016,
2010-05-17, 00:46:05,VALID,916.213,VALID,0,VALID,94.538,VALID,0,VALID,20.8519,VALID,88,VALID,0.829687,
2010-05-17, 00:47:05,VALID,916.249,VALID,0,VALID,94.6371,VALID,0,VALID,20.8535,VALID,88,VALID,0.804688,
2010-05-17, 00:48:05,VALID,916.221,VALID,0,VALID,94.7209,VALID,0,VALID,20.834,VALID,88,VALID,0.696094,
2010-05-17, 00:49:05,VALID,916.229,VALID,0,VALID,94.7209,VALID,0,VALID,20.8145,VALID,88,VALID,0.774609,
2010-05-17, 00:50:05,VALID,916.247,VALID,0,VALID,94.7896,VALID,0,VALID,20.7934,VALID,88,VALID,0.425781,
2010-05-17, 00:51:05,VALID,916.249,VALID,0,VALID,94.9725,VALID,0,VALID,20.8535,VALID,88,VALID,0.6125,
2010-05-17, 00:52:05,VALID,916.242,VALID,0,VALID,95.0792,VALID,0,VALID,20.8535,VALID,88,VALID,0.838281,
2010-05-17, 00:53:05,VALID,916.194,VALID,0,VALID,95.0488,VALID,0,VALID,20.873,VALID,89,VALID,0.446094,
2010-05-17, 00:54:05,VALID,916.189,VALID,0,VALID,94.9801,VALID,0,VALID,20.8925,VALID,89,VALID,0.678516,
2010-05-17, 00:55:04,VALID,916.155,VALID,0,VALID,94.8963,VALID,0,VALID,20.912,VALID,90,VALID,0.667578,
2010-05-17, 00:56:04,VALID,916.136,VALID,0,VALID,94.7972,VALID,0,VALID,20.9316,VALID,90,VALID,0.569531,
2010-05-17, 00:57:04,VALID,916.047,VALID,0,VALID,94.2026,VALID,0,VALID,20.873,VALID,90,VALID,0.446484,
2010-05-17, 00:58:04,VALID,915.979,VALID,0,VALID,94.3855,VALID,0,VALID,20.8519,VALID,91,VALID,0.975,
2010-05-17, 00:59:04,VALID,915.967,VALID,0,VALID,94.5532,VALID,0,VALID,20.834,VALID,91,VALID,1.10312,
2010-05-17, 01:00:04,VALID,915.926,VALID,0,VALID,94.6523,VALID,0,VALID,20.834,VALID,91,VALID,0.869922,
2010-05-17, 01:01:04,VALID,915.941,VALID,0,VALID,94.82,VALID,0,VALID,20.834,VALID,91,VALID,0.900781,
2010-05-17, 01:02:04,VALID,915.909,VALID,0,VALID,94.6828,VALID,0,VALID,20.8551,VALID,109,VALID,0.952734,
2010-05-17, 01:03:04,VALID,915.883,VALID,0,VALID,94.7057,VALID,0,VALID,20.7739,VALID,120,VALID,1.02305,
2010-05-17, 01:04:04,VALID,915.879,VALID,0,VALID,94.6523,VALID,0,VALID,20.756,VALID,126,VALID,1.15898,
2010-05-17, 01:05:04,VALID,915.887,VALID,0,VALID,94.6295,VALID,0,VALID,20.717,VALID,126,VALID,1.08867,
2010-05-17, 01:06:04,VALID,915.903,VALID,0,VALID,94.6523,VALID,0,VALID,20.6975,VALID,126,VALID,0.995703,
2010-05-17, 01:07:04,VALID,915.912,VALID,0,VALID,94.7667,VALID,0,VALID,20.6374,VALID,126,VALID,0.845312,
2010-05-17, 01:08:04,VALID,915.927,VALID,0,VALID,94.9039,VALID,0,VALID,20.639,VALID,126,VALID,1.00664,
2010-05-17, 01:09:04,VALID,915.915,VALID,0,VALID,95.064,VALID,0,VALID,20.6194,VALID,126,VALID,0.834375,
2010-05-17, 01:10:04,VALID,915.881,VALID,0,VALID,95.2165,VALID,0,VALID,20.6194,VALID,126,VALID,0.830078,
2010-05-17, 01:11:04,VALID,915.856,VALID,0,VALID,95.2927,VALID,0,VALID,20.5999,VALID,126,VALID,1.23008,
2010-05-17, 01:12:04,VALID,915.884,VALID,0,VALID,95.3156,VALID,0,VALID,20.5609,VALID,126,VALID,0.798437,
2010-05-17, 01:13:04,VALID,915.897,VALID,0,VALID,95.5519,VALID,0,VALID,20.5789,VALID,126,VALID,0.982422,
2010-05-17, 01:14:04,VALID,915.863,VALID,0,VALID,95.4833,VALID,0,VALID,20.5609,VALID,126,VALID,0.720703,
2010-05-17, 01:15:04,VALID,915.847,VALID,0,VALID,95.6891,VALID,0,VALID,20.6194,VALID,126,VALID,1.31797,
2010-05-17, 01:16:04,VALID,915.85,VALID,0,VALID,95.773,VALID,0,VALID,20.6194,VALID,126,VALID,1.32422,
2010-05-17, 01:17:04,VALID,915.874,VALID,0,VALID,95.9102,VALID,0,VALID,20.639,VALID,126,VALID,1.58242,
2010-05-17, 01:18:04,VALID,915.833,VALID,0,VALID,95.9559,VALID,0,VALID,20.6179,VALID,130,VALID,1.33047,
2010-05-17, 01:19:04,VALID,915.809,VALID,0,VALID,95.9559,VALID,0,VALID,20.639,VALID,130,VALID,1.06406,
2010-05-17, 01:20:04,VALID,915.81,VALID,0,VALID,95.8263,VALID,0,VALID,20.5804,VALID,107,VALID,0.645312,
2010-05-17, 01:21:04,VALID,915.837,VALID,0,VALID,95.8111,VALID,0,VALID,20.5609,VALID,107,VALID,0.81875,
2010-05-17, 01:22:04,VALID,915.811,VALID,0,VALID,95.7577,VALID,0,VALID,20.5414,VALID,107,VALID,0.657812,
2010-05-17, 01:23:04,VALID,915.842,VALID,0,VALID,95.8111,VALID,0,VALID,20.5414,VALID,107,VALID,1.0625,
2010-05-17, 01:24:04,VALID,915.879,VALID,0,VALID,95.8035,VALID,0,VALID,20.5219,VALID,107,VALID,1.11953,
2010-05-17, 01:25:04,VALID,915.887,VALID,0,VALID,95.7958,VALID,0,VALID,20.5219,VALID,107,VALID,0.834766,
2010-05-17, 01:26:04,VALID,915.859,VALID,0,VALID,95.7806,VALID,0,VALID,20.5219,VALID,107,VALID,0.741406,
2010-05-17, 01:27:04,VALID,915.881,VALID,0,VALID,95.6205,VALID,0,VALID,20.5024,VALID,120,VALID,0.964844,
2010-05-17, 01:28:04,VALID,915.891,VALID,0,VALID,95.5595,VALID,0,VALID,20.4813,VALID,116,VALID,0.849609,
2010-05-17, 01:29:04,VALID,915.911,VALID,0,VALID,95.5138,VALID,0,VALID,20.4829,VALID,116,VALID,0.633984,
2010-05-17, 01:30:04,VALID,915.853,VALID,0,VALID,95.468,VALID,0,VALID,20.4829,VALID,116,VALID,0.670313,
2010-05-17, 01:31:04,VALID,915.858,VALID,0,VALID,95.5214,VALID,0,VALID,20.4618,VALID,116,VALID,0.534375,
2010-05-17, 01:32:04,VALID,915.832,VALID,0,VALID,95.4985,VALID,0,VALID,20.5024,VALID,116,VALID,0.521484,
2010-05-17, 01:33:04,VALID,915.816,VALID,0,VALID,95.5062,VALID,0,VALID,20.5024,VALID,138,VALID,0.594531,
2010-05-17, 01:34:04,VALID,915.833,VALID,0,VALID,95.4909,VALID,0,VALID,20.5009,VALID,151,VALID,0.815625,
2010-05-17, 01:35:04,VALID,915.804,VALID,0,VALID,95.4985,VALID,0,VALID,20.5204,VALID,151,VALID,1.11836,
2010-05-17, 01:36:04,VALID,915.774,VALID,0,VALID,95.4147,VALID,0,VALID,20.5414,VALID,151,VALID,0.716016,
2010-05-17, 01:37:04,VALID,915.778,VALID,0,VALID,95.4299,VALID,0,VALID,20.5609,VALID,151,VALID,0.692969,
2010-05-17, 01:38:04,VALID,915.811,VALID,0,VALID,95.4299,VALID,0,VALID,20.5414,VALID,151,VALID,1.18594,
2010-05-17, 01:39:04,VALID,915.783,VALID,0,VALID,95.5671,VALID,0,VALID,20.5594,VALID,151,VALID,0.867969,
2010-05-17, 01:40:04,VALID,915.802,VALID,0,VALID,95.5443,VALID,0,VALID,20.5594,VALID,151,VALID,0.946875,
2010-05-17, 01:41:04,VALID,915.776,VALID,0,VALID,95.5214,VALID,0,VALID,20.5804,VALID,151,VALID,0.678516,
2010-05-17, 01:42:04,VALID,915.778,VALID,0,VALID,95.4299,VALID,0,VALID,20.5804,VALID,151,VALID,0.980078,
2010-05-17, 01:43:04,VALID,915.777,VALID,0,VALID,95.3613,VALID,0,VALID,20.5999,VALID,151,VALID,0.950391,
2010-05-17, 01:44:04,VALID,915.749,VALID,0,VALID,95.247,VALID,0,VALID,20.5789,VALID,151,VALID,0.830859,
2010-05-17, 01:45:04,VALID,915.769,VALID,0,VALID,95.1402,VALID,0,VALID,20.5804,VALID,151,VALID,1.21172,
2010-05-17, 01:46:04,VALID,915.732,VALID,0,VALID,95.0869,VALID,0,VALID,20.5789,VALID,151,VALID,1.06133,
2010-05-17, 01:47:04,VALID,915.711,VALID,0,VALID,95.0411,VALID,0,VALID,20.5999,VALID,151,VALID,1.27695,
2010-05-17, 01:48:04,VALID,915.678,VALID,0,VALID,94.9954,VALID,0.107441,VALID,20.5804,VALID,151,VALID,1.1625,
2010-05-17, 01:49:04,VALID,915.698,VALID,0,VALID,94.9039,VALID,0,VALID,20.5399,VALID,151,VALID,1.02422,
2010-05-17, 01:50:04,VALID,915.644,VALID,0,VALID,94.82,VALID,0,VALID,20.5414,VALID,151,VALID,0.642969,
2010-05-17, 01:51:04,VALID,915.621,VALID,0,VALID,94.9115,VALID,0,VALID,20.5414,VALID,150,VALID,0.997266,
2010-05-17, 01:52:04,VALID,915.651,VALID,0,VALID,94.9649,VALID,0,VALID,20.5219,VALID,130,VALID,1.31758,
2010-05-17, 01:53:04,VALID,915.648,VALID,0,VALID,94.8582,VALID,0,VALID,20.5399,VALID,126,VALID,1.05352,
2010-05-17, 01:54:04,VALID,915.635,VALID,0,VALID,94.7362,VALID,0.107441,VALID,20.5789,VALID,125,VALID,1.16797,
2010-05-17, 01:55:04,VALID,915.589,VALID,0,VALID,94.6828,VALID,0,VALID,20.6194,VALID,125,VALID,1.23281,
2010-05-17, 01:56:04,VALID,915.577,VALID,0,VALID,94.5685,VALID,0,VALID,20.678,VALID,125,VALID,1.75547,
2010-05-17, 01:57:04,VALID,915.513,VALID,0,VALID,94.3474,VALID,0,VALID,20.7365,VALID,125,VALID,1.76875,
2010-05-17, 01:58:04,VALID,915.5,VALID,0,VALID,94.1339,VALID,0,VALID,20.756,VALID,125,VALID,1.38672,
2010-05-17, 01:59:04,VALID,915.477,VALID,0,VALID,93.9738,VALID,0,VALID,20.7755,VALID,125,VALID,0.896484,
2010-05-17, 02:00:04,VALID,915.448,VALID,0,VALID,93.8824,VALID,0,VALID,20.717,VALID,125,VALID,0.778906,
2010-05-17, 02:01:04,VALID,915.409,VALID,0,VALID,93.9129,VALID,0,VALID,20.6959,VALID,125,VALID,1.14336,
2010-05-17, 02:02:04,VALID,915.402,VALID,0,VALID,94.0196,VALID,0,VALID,20.6975,VALID,125,VALID,1.42109,
2010-05-17, 02:03:04,VALID,915.384,VALID,0,VALID,94.1949,VALID,0,VALID,20.6975,VALID,125,VALID,1.29375,
2010-05-17, 02:04:04,VALID,915.37,VALID,0,VALID,94.3474,VALID,0,VALID,20.678,VALID,125,VALID,1.08164,
2010-05-17, 02:05:04,VALID,915.364,VALID,0,VALID,94.4617,VALID,0,VALID,20.6585,VALID,125,VALID,1.46758,
2010-05-17, 02:06:04,VALID,915.339,VALID,0,VALID,94.6295,VALID,0,VALID,20.6179,VALID,125,VALID,1.13906,
2010-05-17, 02:07:04,VALID,915.357,VALID,0,VALID,94.6447,VALID,0,VALID,20.6194,VALID,125,VALID,0.910937,
2010-05-17, 02:08:04,VALID,915.362,VALID,0,VALID,94.5913,VALID,0,VALID,20.5999,VALID,124,VALID,1.2125,
2010-05-17, 02:09:04,VALID,915.359,VALID,0,VALID,94.6295,VALID,0.107441,VALID,20.5804,VALID,124,VALID,1.23242,
2010-05-17, 02:10:04,VALID,915.346,VALID,0,VALID,94.6066,VALID,0,VALID,20.5789,VALID,124,VALID,0.875,
2010-05-17, 02:11:04,VALID,915.352,VALID,0,VALID,94.599,VALID,0.107441,VALID,20.5984,VALID,124,VALID,1.47773,
2010-05-17, 02:12:04,VALID,915.357,VALID,0,VALID,94.4389,VALID,0,VALID,20.5984,VALID,124,VALID,1.10586,
2010-05-17, 02:13:04,VALID,915.343,VALID,0,VALID,94.3626,VALID,0.107441,VALID,20.639,VALID,124,VALID,1.14922,
2010-05-17, 02:14:04,VALID,915.334,VALID,0,VALID,94.416,VALID,0,VALID,20.6179,VALID,152,VALID,0.694141,
2010-05-17, 02:15:04,VALID,915.336,VALID,0,VALID,94.355,VALID,0,VALID,20.639,VALID,152,VALID,0.995703,
2010-05-17, 02:16:04,VALID,915.319,VALID,0,VALID,94.3398,VALID,0,VALID,20.6374,VALID,154,VALID,1.13125,
2010-05-17, 02:17:04,VALID,915.3,VALID,0,VALID,94.355,VALID,0,VALID,20.639,VALID,158,VALID,1.28203,
2010-05-17, 02:18:04,VALID,915.327,VALID,0,VALID,94.3779,VALID,0.107441,VALID,20.6585,VALID,158,VALID,1.1875,
2010-05-17, 02:19:04,VALID,915.317,VALID,0,VALID,94.4008,VALID,0,VALID,20.6374,VALID,158,VALID,0.651953,
2010-05-17, 02:20:04,VALID,915.301,VALID,0,VALID,94.477,VALID,0,VALID,20.6585,VALID,158,VALID,0.930859,
2010-05-17, 02:21:04,VALID,915.27,VALID,0,VALID,94.538,VALID,0,VALID,20.6374,VALID,158,VALID,0.939062,
2010-05-17, 02:22:04,VALID,915.221,VALID,0,VALID,94.6447,VALID,0,VALID,20.639,VALID,158,VALID,1.0918,
2010-05-17, 02:23:04,VALID,915.231,VALID,0,VALID,94.6295,VALID,0,VALID,20.6179,VALID,158,VALID,0.838672,
2010-05-17, 02:24:04,VALID,915.163,VALID,0,VALID,94.6142,VALID,0,VALID,20.6585,VALID,158,VALID,0.923828,
2010-05-17, 02:25:04,VALID,915.161,VALID,0,VALID,94.5609,VALID,0,VALID,20.678,VALID,158,VALID,1.37578,
2010-05-17, 02:26:04,VALID,915.117,VALID,0,VALID,94.4313,VALID,0,VALID,20.6975,VALID,158,VALID,1.21523,
2010-05-17, 02:27:04,VALID,915.132,VALID,0,VALID,94.3093,VALID,0,VALID,20.678,VALID,159,VALID,0.997266,
2010-05-17, 02:28:04,VALID,915.114,VALID,0,VALID,94.2559,VALID,0,VALID,20.678,VALID,168,VALID,1.28281,
2010-05-17, 02:29:04,VALID,915.106,VALID,0,VALID,94.2559,VALID,0.107441,VALID,20.6959,VALID,169,VALID,1.47539,
2010-05-17, 02:30:04,VALID,915.085,VALID,0,VALID,94.2483,VALID,0.107441,VALID,20.6959,VALID,169,VALID,0.915625,
2010-05-17, 02:31:04,VALID,915.073,VALID,0,VALID,94.2102,VALID,0.107441,VALID,20.7154,VALID,169,VALID,1.2,
2010-05-17, 02:32:04,VALID,915.08,VALID,0,VALID,94.1492,VALID,0.107441,VALID,20.7349,VALID,169,VALID,0.975,
2010-05-17, 02:33:04,VALID,915.096,VALID,0,VALID,94.1416,VALID,0.107441,VALID,20.7349,VALID,169,VALID,0.786719,
2010-05-17, 02:34:04,VALID,915.072,VALID,0,VALID,94.1111,VALID,0.107441,VALID,20.7349,VALID,169,VALID,1.01055,
2010-05-17, 02:35:04,VALID,915.05,VALID,0,VALID,94.0577,VALID,0.214882,VALID,20.7333,VALID,169,VALID,0.760156,
2010-05-17, 02:36:04,VALID,915.044,VALID,0,VALID,94.0348,VALID,0.107441,VALID,20.7333,VALID,169,VALID,1.04531,
2010-05-17, 02:37:04,VALID,915.04,VALID,0,VALID,94.0272,VALID,0.214882,VALID,20.7544,VALID,169,VALID,1.36133,
2010-05-17, 02:38:04,VALID,915.019,VALID,0,VALID,94.0196,VALID,0.107441,VALID,20.7528,VALID,168,VALID,1.31914,
2010-05-17, 02:39:04,VALID,914.993,VALID,0,VALID,93.9815,VALID,0.214882,VALID,20.7739,VALID,168,VALID,0.997266,
2010-05-17, 02:40:04,VALID,914.976,VALID,0,VALID,93.9357,VALID,0.107441,VALID,20.7723,VALID,146,VALID,1.34375,
2010-05-17, 02:41:04,VALID,914.938,VALID,0,VALID,93.9434,VALID,0.107441,VALID,20.7723,VALID,144,VALID,1.1707,
2010-05-17, 02:42:04,VALID,914.935,VALID,0,VALID,93.9281,VALID,0.107441,VALID,20.7934,VALID,128,VALID,1.22266,
2010-05-17, 02:43:04,VALID,914.929,VALID,0,VALID,93.8443,VALID,0.107441,VALID,20.8129,VALID,136,VALID,1.18867,
2010-05-17, 02:44:04,VALID,914.943,VALID,0,VALID,93.7451,VALID,0,VALID,20.795,VALID,154,VALID,1.29883,
2010-05-17, 02:45:04,VALID,914.957,VALID,0,VALID,93.6842,VALID,0,VALID,20.7755,VALID,154,VALID,1.02578,
2010-05-17, 02:46:04,VALID,914.941,VALID,0,VALID,93.6918,VALID,0,VALID,20.7755,VALID,154,VALID,0.749219,
2010-05-17, 02:47:04,VALID,914.968,VALID,0,VALID,93.6079,VALID,0,VALID,20.7755,VALID,154,VALID,1.07695,
2010-05-17, 02:48:04,VALID,914.959,VALID,0,VALID,93.5317,VALID,0,VALID,20.7755,VALID,154,VALID,0.754297,
2010-05-17, 02:49:04,VALID,915.003,VALID,0,VALID,93.5088,VALID,0,VALID,20.7755,VALID,154,VALID,1.07578,
2010-05-17, 02:50:04,VALID,914.985,VALID,0,VALID,93.4173,VALID,0,VALID,20.7755,VALID,154,VALID,1.0543,
2010-05-17, 02:51:04,VALID,914.938,VALID,0,VALID,93.3182,VALID,0,VALID,20.7544,VALID,116,VALID,1.11328,
2010-05-17, 02:52:04,VALID,914.938,VALID,0,VALID,93.3716,VALID,0,VALID,20.7365,VALID,116,VALID,0.888672,
2010-05-17, 02:53:04,VALID,914.941,VALID,0,VALID,93.5088,VALID,0,VALID,20.7381,VALID,116,VALID,0.855859,
2010-05-17, 02:54:04,VALID,914.899,VALID,0,VALID,93.6232,VALID,0,VALID,20.678,VALID,116,VALID,0.812891,
2010-05-17, 02:55:04,VALID,914.911,VALID,0,VALID,93.8138,VALID,0,VALID,20.6585,VALID,116,VALID,0.981641,
2010-05-17, 02:56:04,VALID,914.915,VALID,0,VALID,93.8671,VALID,0,VALID,20.639,VALID,116,VALID,0.750391,
2010-05-17, 02:57:04,VALID,914.94,VALID,0,VALID,93.9205,VALID,0,VALID,20.6585,VALID,116,VALID,0.844141,
2010-05-17, 02:58:04,VALID,914.93,VALID,0,VALID,93.9434,VALID,0,VALID,20.639,VALID,116,VALID,0.876953,
2010-05-17, 02:59:04,VALID,914.953,VALID,0,VALID,93.9815,VALID,0,VALID,20.639,VALID,116,VALID,0.876172,
2010-05-17, 03:00:04,VALID,914.954,VALID,0,VALID,94.012,VALID,0,VALID,20.6405,VALID,116,VALID,0.622266,
2010-05-17, 03:01:04,VALID,914.982,VALID,0,VALID,93.9815,VALID,0,VALID,20.6194,VALID,127,VALID,0.616406,
2010-05-17, 03:02:04,VALID,914.998,VALID,0,VALID,94.0882,VALID,0,VALID,20.639,VALID,127,VALID,1.01523,
2010-05-17, 03:03:04,VALID,914.972,VALID,0,VALID,94.073,VALID,0,VALID,20.5999,VALID,127,VALID,0.654297,
2010-05-17, 03:04:04,VALID,914.999,VALID,0,VALID,94.2407,VALID,0,VALID,20.6194,VALID,127,VALID,1.06328,
2010-05-17, 03:05:04,VALID,915.008,VALID,0,VALID,94.2559,VALID,0,VALID,20.6194,VALID,128,VALID,0.897656,
2010-05-17, 03:06:04,VALID,915.013,VALID,0,VALID,94.2254,VALID,0,VALID,20.6194,VALID,128,VALID,0.784766,
2010-05-17, 03:07:04,VALID,915.023,VALID,0,VALID,94.1949,VALID,0,VALID,20.5999,VALID,128,VALID,0.899609,
2010-05-17, 03:08:04,VALID,915.023,VALID,0,VALID,94.2102,VALID,0,VALID,20.5999,VALID,128,VALID,0.762891,
2010-05-17, 03:09:04,VALID,915.061,VALID,0,VALID,94.3017,VALID,0,VALID,20.5789,VALID,128,VALID,0.821094,
2010-05-17, 03:10:04,VALID,915.042,VALID,0,VALID,94.2559,VALID,0,VALID,20.5999,VALID,129,VALID,0.621875,
2010-05-17, 03:11:04,VALID,915,VALID,0,VALID,94.2788,VALID,0,VALID,20.5999,VALID,129,VALID,0.945703,
2010-05-17, 03:12:04,VALID,914.997,VALID,0,VALID,94.3169,VALID,0,VALID,20.621,VALID,164,VALID,1.13242,
2010-05-17, 03:13:04,VALID,914.972,VALID,0,VALID,94.3093,VALID,0,VALID,20.5999,VALID,164,VALID,0.914063,
2010-05-17, 03:14:04,VALID,914.975,VALID,0,VALID,94.2788,VALID,0,VALID,20.639,VALID,164,VALID,0.985156,
2010-05-17, 03:15:04,VALID,914.987,VALID,0,VALID,94.0882,VALID,0,VALID,20.639,VALID,164,VALID,1.04727,
2010-05-17, 03:16:04,VALID,914.98,VALID,0,VALID,93.9434,VALID,0,VALID,20.678,VALID,164,VALID,0.929688,
2010-05-17, 03:17:04,VALID,914.99,VALID,0,VALID,93.8595,VALID,0,VALID,20.6975,VALID,140,VALID,1.15703,
2010-05-17, 03:18:04,VALID,914.975,VALID,0,VALID,93.6994,VALID,0,VALID,20.6975,VALID,137,VALID,0.935156,
2010-05-17, 03:19:04,VALID,914.952,VALID,0,VALID,93.6232,VALID,0,VALID,20.699,VALID,137,VALID,0.750781,
2010-05-17, 03:20:04,VALID,914.943,VALID,0,VALID,93.5927,VALID,0,VALID,20.6975,VALID,137,VALID,1.25391,
2010-05-17, 03:21:04,VALID,914.952,VALID,0,VALID,93.4097,VALID,0,VALID,20.6975,VALID,137,VALID,1.16875,
2010-05-17, 03:22:04,VALID,914.926,VALID,0,VALID,93.364,VALID,0,VALID,20.6975,VALID,137,VALID,1.01172,
2010-05-17, 03:23:04,VALID,914.954,VALID,0,VALID,93.3182,VALID,0,VALID,20.6975,VALID,116,VALID,1.24063,
2010-05-17, 03:24:04,VALID,914.913,VALID,0,VALID,93.3868,VALID,0,VALID,20.6764,VALID,134,VALID,0.938672,
2010-05-17, 03:25:04,VALID,914.957,VALID,0,VALID,93.425,VALID,0,VALID,20.699,VALID,134,VALID,1.04844,
2010-05-17, 03:26:04,VALID,914.913,VALID,0,VALID,93.5164,VALID,0,VALID,20.6585,VALID,134,VALID,0.701953,
2010-05-17, 03:27:04,VALID,914.88,VALID,0,VALID,93.6079,VALID,0,VALID,20.699,VALID,134,VALID,0.527734,
2010-05-17, 03:28:04,VALID,914.883,VALID,0,VALID,93.6155,VALID,0,VALID,20.6585,VALID,145,VALID,1.19766,
2010-05-17, 03:29:04,VALID,914.864,VALID,0,VALID,93.5622,VALID,0,VALID,20.6585,VALID,158,VALID,0.970703,
2010-05-17, 03:30:04,VALID,914.833,VALID,0,VALID,93.6308,VALID,0,VALID,20.6585,VALID,157,VALID,0.895703,
2010-05-17, 03:31:04,VALID,914.828,VALID,0,VALID,93.6384,VALID,0,VALID,20.639,VALID,157,VALID,1.11992,
2010-05-17, 03:32:04,VALID,914.823,VALID,0,VALID,93.7528,VALID,0,VALID,20.639,VALID,156,VALID,1.13867,
2010-05-17, 03:33:04,VALID,914.835,VALID,0,VALID,93.7909,VALID,0,VALID,20.639,VALID,120,VALID,0.95,
2010-05-17, 03:34:04,VALID,914.847,VALID,0,VALID,93.6689,VALID,0,VALID,20.699,VALID,120,VALID,1.13594,
2010-05-17, 03:35:04,VALID,914.834,VALID,0,VALID,93.5393,VALID,0,VALID,20.678,VALID,120,VALID,1.00508,
2010-05-17, 03:36:04,VALID,914.849,VALID,0,VALID,93.4631,VALID,0,VALID,20.6585,VALID,116,VALID,0.848047,
2010-05-17, 03:37:04,VALID,914.847,VALID,0,VALID,93.6765,VALID,0,VALID,20.639,VALID,116,VALID,0.916016,
2010-05-17, 03:38:04,VALID,914.853,VALID,0,VALID,93.6842,VALID,0,VALID,20.639,VALID,116,VALID,1.15781,
2010-05-17, 03:39:04,VALID,914.865,VALID,0,VALID,93.7147,VALID,0,VALID,20.639,VALID,113,VALID,1.22227,
2010-05-17, 03:40:04,VALID,914.892,VALID,0,VALID,93.7375,VALID,0,VALID,20.639,VALID,110,VALID,1.19062,
2010-05-17, 03:41:04,VALID,914.837,VALID,0,VALID,93.7985,VALID,0,VALID,20.6194,VALID,123,VALID,1.12031,
2010-05-17, 03:42:04,VALID,914.877,VALID,0,VALID,93.8747,VALID,0,VALID,20.6405,VALID,123,VALID,1.04102,
2010-05-17, 03:43:04,VALID,914.89,VALID,0,VALID,93.9129,VALID,0,VALID,20.639,VALID,123,VALID,0.891016,
2010-05-17, 03:44:04,VALID,914.925,VALID,0,VALID,93.829,VALID,0,VALID,20.639,VALID,123,VALID,1.02344,